TimeCST,TemperatureF,Dew PointF,Humidity,Sea Level PressureIn,VisibilityMPH,Wind Direction,Wind SpeedMPH,Gust SpeedMPH,PrecipitationIn,Events,Conditions,WindDirDegrees,DateUTC
12:52 AM,25.0,21.9,88,30.21,-9999.0,Calm,Calm,-,N/A,,Unknown,0,2013-02-12 06:52:00
1:52 AM,24.1,19.9,84,30.22,-9999.0,Calm,Calm,-,N/A,,Unknown,0,2013-02-12 07:52:00
2:52 AM,24.1,21.0,88,30.23,-9999.0,Calm,Calm,-,N/A,,Unknown,0,2013-02-12 08:52:00
3:52 AM,23.0,19.0,85,30.20,-9999.0,Calm,Calm,-,N/A,,Unknown,0,2013-02-12 09:52:00
4:52 AM,21.9,18.0,85,30.20,-9999.0,Calm,Calm,-,N/A,,Unknown,0,2013-02-12 10:52:00
5:52 AM,21.9,18.0,85,30.21,-9999.0,Calm,Calm,-,N/A,,Unknown,0,2013-02-12 11:52:00
6:52 AM,19.9,18.0,92,30.22,-9999.0,Calm,Calm,-,N/A,,Unknown,0,2013-02-12 12:52:00
7:52 AM,23.0,19.9,88,30.20,-9999.0,Calm,Calm,-,N/A,,Unknown,0,2013-02-12 13:52:00
8:52 AM,30.0,25.0,82,30.21,-9999.0,Calm,Calm,-,N/A,,Unknown,0,2013-02-12 14:52:00
9:52 AM,33.1,26.1,75,30.17,-9999.0,Calm,Calm,-,N/A,,Unknown,0,2013-02-12 15:52:00
10:52 AM,35.1,26.1,70,30.17,-9999.0,SSE,3.5,-,N/A,,Unknown,150,2013-02-12 16:52:00
11:52 AM,36.0,24.1,62,30.15,-9999.0,SW,3.5,-,N/A,,Unknown,220,2013-02-12 17:52:00
12:52 PM,39.0,24.1,55,30.12,-9999.0,Calm,Calm,-,N/A,,Unknown,0,2013-02-12 18:52:00
1:52 PM,39.9,26.1,58,30.11,-9999.0,South,5.8,-,N/A,,Unknown,180,2013-02-12 19:52:00
2:52 PM,42.1,26.1,53,30.08,-9999.0,South,6.9,-,N/A,,Unknown,180,2013-02-12 20:52:00
3:52 PM,41.0,27.0,57,30.06,-9999.0,South,8.1,-,N/A,,Unknown,170,2013-02-12 21:52:00
4:52 PM,39.9,28.0,63,30.03,-9999.0,SSW,5.8,-,N/A,,Unknown,200,2013-02-12 22:52:00
5:52 PM,37.0,27.0,67,30.04,-9999.0,SSW,4.6,-,N/A,,Unknown,200,2013-02-12 23:52:00
6:52 PM,33.1,26.1,75,30.04,-9999.0,Calm,Calm,-,N/A,,Unknown,0,2013-02-13 00:52:00
7:52 PM,30.0,25.0,82,30.04,-9999.0,Calm,Calm,-,N/A,,Unknown,0,2013-02-13 01:52:00
8:52 PM,30.0,25.0,82,30.03,-9999.0,South,3.5,-,N/A,,Unknown,180,2013-02-13 02:52:00
9:52 PM,28.9,24.1,82,30.01,-9999.0,South,4.6,-,N/A,,Unknown,190,2013-02-13 03:52:00
10:52 PM,27.0,24.1,89,30.01,-9999.0,South,3.5,-,N/A,,Unknown,180,2013-02-13 04:52:00
11:52 PM,27.0,23.0,85,29.99,-9999.0,SSW,4.6,-,N/A,,Unknown,200,2013-02-13 05:52:00